Location: ?????
(55.8833°N, 37.6500°E)
Time: 01:55:02
(UTC+00:00)

STARLINK-1056 - Visible Passes

Search period start: 11 July 2020 00:00
Search period end: 21 July 2020 00:00
Orbit: 548 x 551 km, 53.0° (Epoch: 10 July)

Date Brightness Start Highest point End Pass type
(mag) Time Alt. Az. Time Alt. Az. Time Alt. Az.
11 Jul 4.4 19:43:30 10° W 19:47:18 35° SSW 19:50:49 11° SE visible
11 Jul 5.6 21:24:16 10° WSW 21:25:59 12° SW 21:26:26 12° SW visible
12 Jul 4.6 19:38:08 10° W 19:41:48 31° SSW 19:45:06 12° SSE visible
13 Jul 4.9 19:32:52 10° W 19:36:21 26° SSW 19:39:31 12° SSE visible
14 Jul 5.1 19:27:42 10° W 19:30:57 22° SW 19:34:03 11° SSE visible
15 Jul 5.4 19:22:39 10° W 19:25:36 19° SW 19:28:31 10° S visible
16 Jul 5.7 19:17:47 10° WSW 19:20:16 16° SW 19:22:45 10° S visible
17 Jul 5.9 19:13:12 10° WSW 19:14:59 13° SW 19:16:47 10° SSW visible
